RH
94 90 89 93 99 103 102 102 103 104 102 97 95 90 85 78 73 80 90 96 100 101 99 98 99 98 98 99 102 103 102 100 99 100 98 96 94 95 96 94 91 88 89 93 96 97 98 101 102 102 103 104
93 98 99 97 99 103 102 102 102 102 102 98 96 97 97 95 90 91 96 100 105 107 104 100 101 103 101 100 101 103 104 101 99 99 100 101 100 98 97 95 93 89 86 86 88 92 95 98 99 100 100 98
81 89 97 100 101 102 103 102 102 102 104 102 99 101 102 105 106 105 104 103 100 102 104 103 102 103 103 104 104 101 100 102 103 103 103 103 104 104 103 100 98 95 92 89 86 88 91 94 95 96 95 93
93 93 90 90 89 89 90 92 95 99 103 104 103 106 106 105 106 104 103 101 95 94 98 102 104 103 102 104 106 104 101 101 102 104 105 106 105 105 107 105 103 102 100 98 95 91 89 90 91 93 92 91
103 104 99 97 93 87 84 84 88 91 93 93 95 100 103 102 100 98 97 95 95 94 93 95 100 102 102 101 102 103 103 102 102 102 101 104 104 102 103 102 102 102 102 101 99 98 94 91 90 91 92 92
102 102 101 101 100 98 96 95 96 97 97 97 96 97 99 101 102 101 99 98 97 98 98 96 97 100 103 102 99 96 96 99 103 103 101 103 104 101 100 100 100 101 101 101 101 100 99 96 94 93 93 92
104 103 101 100 98 99 101 102 105 107 107 105 102 102 102 102 104 104 105 105 103 103 103 101 102 103 103 105 104 100 95 94 97 101 103 105 106 105 102 101 100 101 102 102 102 101 101 101 100 97 96 94
105 105 104 104 101 99 100 101 104 107 107 103 101 101 102 103 103 103 104 105 104 105 104 103 106 105 101 103 106 104 100 97 95 97 101 105 108 109 107 104 101 103 104 101 101 101 102 102 102 101 99 98
103 105 104 103 103 103 102 101 102 103 104 102 102 101 101 102 101 101 102 103 102 101 102 103 104 102 101 102 103 102 100 98 96 93 94 96 99 104 107 105 103 105 106 104 102 101 102 101 100 101 101 101
97 100 101 100 101 102 101 102 102 101 102 103 104 106 106 104 101 101 102 101 101 101 101 102 102 101 101 102 101 100 99 97 95 92 88 87 89 93 98 101 102 102 104 104 103 102 104 103 101 101 101 100
88 91 92 93 93 93 91 91 91 92 97 101 104 105 105 104 102 102 102 102 102 102 102 102 102 103 102 100 98 98 98 97 96 93 88 85 84 83 85 90 93 94 96 99 100 101 103 104 102 101 102 102
81 81 82 83 83 82 82 81 80 81 86 94 101 103 103 103 101 100 99 98 98 97 96 95 94 94 93 93 92 92 92 89 87 85 82 80 81 81 79 80 82 84 87 89 91 92 95 98 99 99 101 102
92 89 88 89 90 90 90 90 88 87 87 89 92 94 95 93 91 88 86 86 86 86 85 83 82 80 80 81 82 83 84 81 77 75 74 73 75 78 77 77 77 77 79 80 81 83 85 88 91 94 96 97
104 102 102 99 98 97 97 97 95 94 93 90 88 86 83 81 79 78 78 79 78 78 79 80 82 82 81 80 80 81 81 80 77 75 75 74 74 75 75 75 75 75 75 75 77 78 81 83 84 87 89 91
104 105 107 103 100 99 98 95 93 91 91 91 88 85 84 83 84 85 86 85 83 81 80 81 82 83 83 81 82 82 82 82 82 83 84 82 80 78 76 74 73 73 74 74 76 77 80 83 84 86 87 88
102 103 106 104 104 107 106 101 99 97 96 97 93 91 92 93 95 95 94 92 89 87 86 85 83 83 82 81 82 82 83 83 84 86 87 87 86 84 83 81 78 74 72 71 72 74 77 80 83 86 88 89
107 108 108 106 106 109 109 106 105 104 104 105 102 100 102 104 104 101 99 97 94 92 89 88 87 86 84 80 78 76 76 76 76 78 78 78 79 79 81 82 84 83 81 77 73 70 70 73 76 79 82 84
104 107 107 106 107 108 108 107 106 106 105 105 102 102 103 104 105 104 104 103 101 99 97 95 94 93 92 87 82 78 75 73 72 71 70 69 68 69 70 72 75 78 82 83 81 78 74 72 71 73 75 77
99 101 101 102 105 105 104 103 103 103 103 103 101 101 102 102 102 100 101 101 100 101 100 102 102 100 101 100 96 92 89 86 83 79 76 73 71 69 67 66 66 66 69 72 76 78 79 78 78 77 77 78
101 102 101 101 102 101 101 101 101 101 102 102 101 102 102 102 100 97 97 95 94 95 96 99 99 98 98 100 99 96 94 92 90 85 82 79 77 75 72 70 68 66 64 64 65 67 70 72 75 77 78 79
102 102 101 101 100 101 102 101 102 104 105 103 103 105 103 103 102 99 98 96 95 95 93 92 90 86 85 86 86 85 83 83 83 81 80 80 79 78 76 74 71 68 66 64 63 62 62 63 65 67 69 70
101 101 101 101 101 101 102 102 103 104 105 104 104 104 103 103 102 100 100 99 98 96 93 89 85 81 79 79 78 78 77 76 78 80 80 81 81 79 76 73 71 69 67 66 64 62 61 61 61 61 61 62
99 101 102 103 103 102 103 104 102 102 103 102 101 101 101 101 100 101 100 100 100 99 97 95 92 90 89 88 87 85 85 85 86 87 87 86 83 80 76 74 73 72 72 70 68 66 63 62 61 60 60 59
95 97 98 100 100 99 101 103 101 101 102 102 103 102 103 103 102 102 101 101 102 102 100 100 100 99 98 99 98 97 98 100 98 97 96 92 88 86 83 82 81 81 81 79 77 72 69 68 67 66 64 63
80 83 85 88 90 90 93 95 95 97 98 100 102 102 104 105 103 104 104 104 104 103 102 102 103 102 101 102 102 101 103 107 104 100 101 98 96 97 94 91 90 90 89 87 84 81 79 79 77 74 72 71
61 64 66 69 72 75 77 79 81 83 85 86 88 91 94 96 95 96 97 96 95 95 96 97 97 96 97 98 99 98 97 100 98 95 97 96 94 95 94 92 92 91 89 86 85 85 84 83 82 80 79 78
55 56 56 57 58 60 61 63 64 66 68 70 72 75 78 79 80 80 80 80 79 80 81 82 83 83 84 84 84 85 85 86 86 85 85 84 84 84 83 82 80 80 79 78 78 78 77 77 76 76 77 77
44 47 49 51 54 56 58 59 60 61 62 63 64 64 64 64 65 65 66 68 69 71 72 72 73 72 72 72 73 74 75 76 77 77 77 77 77 76 75 74 72 70 70 69 68 68 67 67 67 67 66 66
33 35 37 39 43 47 50 53 55 57 59 60 60 60 60 60 60 61 62 63 64 65 65 65 65 65 65 65 65 65 66 66 67 67 68 68 67 66 66 65 64 63 62 62 61 60 60 60 60 59 58 57
40 39 38 37 37 38 39 40 42 45 46 47 48 49 50 51 52 54 55 56 57 57 57 58 58 58 58 58 58 58 58 58 58 58 57 57 56 55 55 54 54 53 52 52 51 50 50 50 50 49 48 48
48 47 46 45 44 43 43 42 43 43 42 40 40 39 40 40 41 42 43 43 44 44 44 45 45 45 45 46 46 46 46 46 46 45 44 44 43 43 42 42 42 41 40 39 39 39 38 37 37 37 36 36
Wind_Speed
65 66 67 68 69 71 71 70 71 70 69 69 69 70 70 70 69 67 66 65 66 66 67 67 67 68 69 70 71 72 72 73 73 75 76 78 80 81 82 82 83 83 84 84 84 84 84 84 83 83 83 82
65 66 67 68 69 71 72 72 72 72 72 72 73 73 73 73 73 71 70 69 68 68 69 68 68 68 69 69 70 71 72 73 73 74 75 76 77 79 80 82 82 83 84 84 85 85 85 85 85 85 84 84
66 67 68 69 70 70 71 71 71 72 72 72 73 72 72 72 73 73 73 72 71 70 70 71 70 70 70 70 70 70 71 72 73 74 74 75 76 77 78 80 81 82 83 84 84 85 85 86 86 86 85 85
67 68 68 68 70 71 71 71 71 71 71 71 71 71 70 71 71 72 73 72 72 71 71 71 72 73 73 73 73 72 72 72 73 74 75 75 76 76 77 78 79 80 82 83 83 84 85 86 86 86 86 86
70 70 70 69 69 70 71 72 72 71 71 71 71 71 70 71 71 72 72 72 72 72 72 72 72 74 75 76 76 76 76 75 75 76 76 77 77 77 77 78 78 79 80 81 83 84 85 85 86 87 87 87
73 74 74 73 72 71 71 72 72 72 71 71 71 71 71 72 72 73 73 74 74 74 74 74 74 74 75 77 78 79 79 79 79 79 79 79 79 79 79 79 79 80 80 81 81 83 84 85 86 86 87 87
75 75 76 76 75 74 74 74 74 73 73 73 73 73 73 73 74 74 75 75 76 76 76 76 76 76 77 77 78 79 80 81 82 82 82 82 82 82 82 82 82 82 82 82 82 83 83 84 85 86 87 87
75 76 76 77 77 76 76 76 76 75 75 75 75 75 76 76 76 76 77 77 77 77 77 77 77 77 78 78 78 79 80 80 82 83 84 85 85 85 85 84 84 84 84 84 85 85 85 85 85 86 87 87
77 77 77 78 78 78 78 78 78 77 77 76 77 77 79 79 79 79 79 79 79 79 79 79 78 79 79 79 80 80 80 80 81 82 84 85 86 87 87 87 87 87 87 87 87 87 87 87 87 87 87 88
79 79 78 79 79 79 79 80 80 79 79 79 79 80 80 81 82 83 83 83 83 82 82 82 82 82 83 83 83 83 83 83 83 83 84 85 87 88 88 89 89 90 90 90 90 90 90 90 90 90 89 89
81 81 81 80 80 80 81 81 81 81 80 81 81 82 82 82 83 84 85 85 86 86 87 87 87 87 87 87 87 87 87 87 87 87 86 86 87 88 89 90 90 91 92 92 93 93 93 93 93 93 92 92
84 84 84 84 84 84 84 84 83 83 83 83 84 85 85 86 86 87 87 88 89 89 89 90 91 91 91 91 91 90 90 90 90 90 90 89 89 89 89 90 91 92 93 94 95 95 96 96 96 95 95 95
88 88 88 87 87 87 87 86 86 86 86 87 87 88 89 89 90 90 91 91 91 91 91 92 92 92 93 92 92 92 92 92 92 92 92 91 91 91 92 92 92 93 94 94 95 96 97 98 98 98 98 98
91 91 91 91 91 90 90 89 89 89 89 89 90 91 91 91 92 92 92 93 93 92 92 92 92 92 92 92 92 91 91 91 91 91 91 92 92 93 94 95 95 95 95 96 96 97 97 98 99 99 99 99
91 92 92 93 92 91 91 90 89 89 89 89 90 90 90 90 90 90 90 91 91 91 91 91 91 91 91 91 91 91 91 91 91 91 91 92 92 93 95 95 96 97 97 97 97 98 98 98 99 99 100 100
92 92 93 93 92 91 91 90 89 89 89 89 89 89 89 89 89 89 90 90 90 90 90 90 90 91 91 92 92 92 93 93 93 93 93 94 94 94 95 96 96 97 97 98 98 98 99 99 100 100 100 101
96 96 96 96 96 95 94 93 93 93 93 92 92 92 93 93 93 94 94 94 94 94 94 94 94 94 95 95 95 95 95 95 96 96 96 96 96 96 96 97 97 97 98 98 99 100 100 100 101 101 101 102
100 101 101 100 100 99 99 99 98 98 98 98 98 98 98 98 99 99 99 99 99 99 99 99 99 99 99 98 98 98 98 98 98 98 98 98 98 98 98 98 98 98 98 99 100 100 101 101 102 102 103 103
101 103 103 103 103 103 103 103 103 103 103 103 103 103 103 103 104 103 103 102 101 101 101 101 101 101 101 100 100 101 100 100 100 100 100 100 101 101 101 101 101 101 101 101 101 101 102 102 103 103 104 104
97 99 100 102 103 103 103 103 104 105 106 106 106 106 107 107 106 106 105 104 103 103 103 104 104 104 103 102 102 103 102 102 102 103 103 103 103 103 104 104 104 104 104 104 104 104 104 104 105 105 105 106
94 95 96 97 98 99 100 100 102 103 104 104 105 106 106 107 106 106 105 105 105 106 106 107 107 106 105 104 104 104 104 104 104 104 105 105 105 106 106 106 106 106 106 106 106 106 107 107 107 108 108 109
95 95 95 96 96 97 97 98 100 101 102 102 102 103 103 104 104 104 104 105 106 107 107 108 108 107 106 105 105 105 105 105 105 105 106 107 107 107 108 108 107 107 108 108 108 109 109 109 110 110 111 111
98 98 98 99 99 99 100 100 101 101 101 101 101 101 102 102 103 103 104 105 106 107 107 108 107 107 106 105 105 105 106 106 106 107 108 109 109 109 109 109 109 109 109 110 110 111 111 111 111 112 112 113
101 101 102 102 103 103 103 104 104 104 103 103 103 103 104 104 104 105 106 107 108 108 108 108 108 108 107 107 107 107 108 109 110 111 111 112 112 112 112 112 111 111 112 112 113 113 113 113 113 114 115 115
101 102 103 104 105 105 106 106 106 105 106 106 107 107 107 107 108 110 111 111 111 111 111 110 110 110 110 110 110 111 112 113 114 114 114 115 115 115 115 115 115 115 115 116 116 115 115 115 116 117 117 117
99 101 102 103 104 105 106 107 107 107 108 109 109 110 110 111 112 113 114 114 114 113 113 113 113 113 113 114 114 115 116 116 116 117 117 117 118 118 118 118 118 118 118 119 118 118 118 119 119 119 120 120
98 100 101 102 102 103 104 105 106 107 109 110 110 112 113 114 115 115 116 115 115 114 115 115 116 116 117 117 117 118 118 118 119 119 120 120 120 121 121 121 121 121 121 121 121 121 121 122 122 122 123 123
97 99 100 100 101 102 103 105 106 107 109 110 112 113 114 114 115 115 115 115 115 115 116 117 117 118 118 118 118 119 119 120 120 121 121 122 122 123 123 124 124 123 124 124 125 124 124 125 125 125 126 126
92 94 95 97 99 100 102 103 105 107 108 110 112 113 113 114 113 113 114 114 115 116 116 117 117 118 118 118 118 119 119 120 120 121 122 122 123 123 124 124 124 124 124 125 125 125 125 126 126 127 128 128
88 89 90 92 94 95 97 98 100 102 105 107 109 110 111 111 111 111 112 113 114 115 115 116 116 117 117 117 118 118 118 119 119 120 121 121 121 122 122 122 122 123 123 124 123 123 123 124 125 125 126 126
85 86 87 89 90 91 92 93 95 98 100 102 103 104 105 105 106 107 107 108 109 110 111 112 112 113 113 114 114 114 115 115 116 117 117 117 117 118 118 118 118 119 119 119 119 119 120 119 119 120 120 120
Wind_Direction
236 237 236 236 236 237 239 240 241 243 244 246 248 249 250 251 251 251 252 252 252 251 251 251 251 251 251 251 251 251 251 251 251 251 251 251 251 251 251 251 251 252 252 252 253 253 253 253 253 253 254 254
237 238 238 238 237 238 239 240 242 244 245 247 248 249 250 251 251 251 251 252 252 252 252 252 252 252 252 252 252 252 252 252 252 253 253 252 252 252 252 252 252 253 253 253 253 254 254 254 254 254 254 255
240 239 239 239 239 239 240 241 242 244 245 246 247 248 249 250 250 251 251 252 252 252 252 252 252 252 252 252 252 252 252 253 253 253 254 254 254 254 254 254 254 254 254 254 254 254 254 255 255 255 255 255
241 241 241 241 241 241 242 242 243 244 245 246 246 247 247 248 249 250 251 252 253 253 253 253 252 252 252 252 252 252 252 252 252 253 253 253 254 254 254 254 254 254 254 255 255 255 255 255 255 255 256 256
240 241 242 243 244 244 244 245 246 247 248 248 248 248 248 249 249 250 250 251 252 253 253 253 253 252 252 252 252 252 252 252 252 252 252 253 253 253 254 254 254 255 255 255 255 255 256 256 256 256 256 256
241 242 243 244 245 245 245 246 247 249 250 251 251 250 250 250 251 251 251 251 252 253 253 254 254 254 253 253 253 253 253 253 253 253 253 253 253 253 253 253 253 254 254 255 255 255 256 256 256 257 257 257
242 243 245 245 246 246 246 247 248 249 250 251 251 251 251 251 251 251 252 252 252 253 254 254 254 255 255 254 254 254 254 254 254 254 254 254 254 254 254 253 253 253 254 254 254 255 255 256 256 256 257 257
243 244 245 246 247 247 247 247 247 248 249 250 251 251 251 252 252 252 252 252 253 253 254 254 255 255 255 255 255 255 255 255 255 255 255 256 255 255 255 255 254 254 254 254 254 254 255 255 255 256 256 257
244 245 245 246 246 247 247 247 247 248 248 250 251 251 251 251 252 252 252 253 253 254 254 255 255 255 256 256 256 256 257 257 257 257 257 257 256 256 256 256 256 255 255 255 255 254 255 255 255 255 256 256
246 247 247 247 247 248 248 248 249 249 250 251 252 252 253 252 252 253 253 254 254 255 255 256 256 256 256 257 257 257 258 258 258 258 258 258 257 257 257 257 256 256 256 256 256 255 255 255 255 255 256 256
247 247 248 248 249 250 250 250 250 251 252 252 253 253 254 254 254 254 255 255 255 256 257 257 258 258 258 258 258 258 259 259 259 259 259 259 258 257 257 257 257 257 257 257 257 257 256 256 256 256 256 256
248 249 249 250 250 251 252 252 252 253 253 253 254 254 254 255 255 256 256 256 257 257 258 258 258 259 259 259 259 259 260 260 260 260 260 260 259 258 257 257 257 258 258 257 257 257 257 257 257 257 257 257
250 251 251 251 252 252 252 253 254 254 254 254 254 255 255 255 256 256 257 257 258 258 258 259 259 259 259 259 260 260 260 261 261 261 261 260 259 258 258 258 258 258 258 258 258 258 258 258 258 258 258 258
251 251 252 252 252 253 253 254 255 255 255 255 255 255 255 256 256 257 258 258 258 259 259 259 259 259 259 259 260 260 260 260 260 261 261 260 260 259 259 259 260 260 259 259 259 258 258 258 258 258 258 258
251 252 252 253 253 254 254 254 255 254 254 254 254 255 255 256 257 257 258 258 259 259 259 259 259 259 259 259 259 259 259 260 260 260 260 260 260 260 260 260 260 260 260 260 259 259 259 259 258 258 258 259
250 251 252 253 254 254 255 255 255 254 254 255 255 255 255 256 257 258 259 259 259 260 260 259 259 259 259 259 259 259 259 259 259 259 259 260 260 260 260 260 260 260 260 260 260 260 259 259 259 259 259 259
249 250 251 252 253 254 255 256 256 256 256 257 257 256 257 257 258 260 261 261 262 261 261 261 261 261 261 261 260 260 260 260 259 259 259 259 259 259 259 259 259 260 260 260 260 260 260 260 260 260 260 259
250 251 252 252 253 254 255 256 257 257 257 257 257 257 258 259 260 261 262 262 263 263 263 263 263 263 263 263 262 262 261 261 261 260 260 260 260 259 259 259 259 259 259 259 259 259 259 259 260 260 260 260
251 252 252 253 254 255 256 257 257 258 258 258 258 258 259 259 260 261 261 262 262 262 263 263 263 263 263 263 263 262 262 262 262 262 261 261 261 260 260 260 260 259 259 259 259 259 259 259 259 259 259 259
252 252 253 253 254 255 256 256 257 257 258 258 258 258 259 259 260 260 261 261 261 261 261 261 261 261 261 262 262 262 262 262 262 262 262 262 262 262 261 261 260 260 260 259 259 259 259 259 259 259 259 259
253 254 254 254 255 255 255 256 256 257 257 257 258 258 259 259 260 260 260 261 260 260 260 260 260 261 261 261 262 262 262 262 263 263 263 263 262 262 262 261 261 261 260 260 260 260 259 259 259 259 259 260
255 255 255 255 255 255 255 256 256 256 257 257 258 258 259 260 260 260 260 260 260 260 261 261 261 262 262 262 262 263 263 263 263 263 263 263 262 262 262 262 262 261 261 261 261 260 260 260 260 260 260 260
255 255 256 256 256 256 256 256 256 256 257 258 258 259 259 260 260 260 260 260 260 260 261 261 262 262 263 263 263 263 264 263 263 263 263 263 263 263 263 263 263 263 262 262 262 262 261 261 261 261 261 261
255 255 256 256 256 256 257 257 257 257 258 258 258 258 258 259 259 259 258 258 258 259 259 260 261 261 262 262 262 263 262 262 262 262 263 263 263 263 264 264 264 264 263 263 263 263 263 263 262 262 262 262
255 255 255 256 256 257 257 258 258 258 259 258 258 258 258 258 258 258 258 258 258 258 259 259 260 260 261 261 261 261 261 261 261 262 262 263 263 263 263 263 263 263 263 263 263 264 264 264 263 263 263 263
256 256 256 256 256 257 257 257 258 258 258 258 259 259 259 259 259 259 259 259 259 260 260 261 261 261 261 261 261 261 261 261 262 262 262 262 263 263 263 263 263 263 263 263 264 264 264 264 264 264 264 264
258 258 257 257 257 258 258 258 259 259 259 259 259 259 259 259 259 260 261 261 262 262 262 262 262 262 262 262 262 262 263 263 263 263 263 263 264 264 264 264 264 264 264 264 264 264 264 264 264 264 264 264
259 259 259 260 260 260 260 260 260 260 260 261 260 260 260 260 261 261 262 263 263 264 264 264 264 264 264 264 264 264 264 264 265 265 265 265 265 265 265 265 265 265 265 265 265 265 265 265 265 265 265 264
260 260 260 260 260 260 260 260 261 261 261 261 261 262 262 262 263 263 264 264 264 264 264 265 265 265 265 265 265 265 265 265 265 266 266 266 266 266 266 266 266 266 266 266 266 266 266 266 266 266 265 265
260 260 260 260 260 260 260 261 261 261 261 261 261 262 262 263 263 263 264 264 264 264 264 265 265 265 265 265 265 265 266 266 266 266 265 266 266 266 266 266 267 267 266 266 267 267 266 266 266 266 266 266
259 259 260 260 260 260 260 261 261 261 261 261 262 262 262 263 263 263 263 263 263 263 263 264 264 264 264 265 265 265 265 265 265 265 265 266 266 266 266 266 266 266 266 267 267 267 266 266 266 266 266 266